This is the latest recevied weather packets stored in our database for station/object WP3XM. If no packets are shown the sender has not sent any weather packets the latest 10 day(s).
| Time | Temp. | Humidity | Pressure | Rain* | Wind** | Luminosity | Snow |
|---|---|---|---|---|---|---|---|
| 1777635593 | 26.11° C | 88% | 1015.9 hPa | 0 mm | - | 210 W/m² | - |
| 1777635290 | 25.56° C | 90% | 1015.6 hPa | 0 mm | - | 200 W/m² | - |
| 1777634987 | 25.56° C | 91% | 1015.5 hPa | 0 mm | - | 169 W/m² | - |
| 1777634683 | 25° C | 91% | 1015.6 hPa | 0 mm | - | 203 W/m² | - |
| 1777634381 | 25° C | 92% | 1015.3 hPa | 0 mm | - | 116 W/m² | - |
| 1777634077 | 24.44° C | 93% | 1015.3 hPa | 0 mm | - | 104 W/m² | - |
| 1777633774 | 24.44° C | 93% | 1015.6 hPa | 0 mm | - | 84 W/m² | - |
| 1777633472 | 23.89° C | 93% | 1015.3 hPa | 0 mm | - | 80 W/m² | - |
| 1777633170 | 23.89° C | 93% | 1015.3 hPa | 0 mm | - | 75 W/m² | - |
| 1777632866 | 23.89° C | 93% | 1015.1 hPa | 0 mm | - | 76 W/m² | - |
| 1777632561 | 23.89° C | 93% | 1015.3 hPa | 0 mm | - | 64 W/m² | - |
| 1777632260 | 23.89° C | 94% | 1015 hPa | 0 mm | - | 58 W/m² | - |
| 1777631956 | 23.89° C | 94% | 1014.9 hPa | 0 mm | - | 53 W/m² | - |
| 1777631655 | 23.89° C | 94% | 1014.9 hPa | 0 mm | - | 43 W/m² | - |
| 1777631351 | 23.89° C | 93% | 1014.8 hPa | 0 mm | - | 34 W/m² | - |
| 1777631049 | 23.89° C | 94% | 1014.8 hPa | 0 mm | - | 26 W/m² | - |
| 1777630744 | 23.89° C | 93% | 1014.5 hPa | 0 mm | - | 21 W/m² | - |
| 1777630441 | 23.89° C | 93% | 1014.8 hPa | 0 mm | - | 15 W/m² | - |
| 1777630139 | 23.89° C | 93% | 1014.7 hPa | 0 mm | - | 9 W/m² | - |
| 1777629836 | 24.44° C | 93% | 1014.7 hPa | 0 mm | - | 5 W/m² | - |
| 1777629533 | 24.44° C | 94% | 1014.6 hPa | 0 mm | - | 3 W/m² | - |
| 1777629229 | 23.89° C | 94% | 1014.2 hPa | 0 mm | - | 1 W/m² | - |
| 1777628925 | 23.89° C | 93% | 1014.4 hPa | 0 mm | - | 1 W/m² | - |
| 1777628622 | 23.89° C | 93% | 1014.4 hPa | 0 mm | - | 0 W/m² | - |
| 1777628318 | 23.89° C | 93% | 1014.5 hPa | 0 mm | - | 0 W/m² | - |
* Rain latest hour (hover to see other rain measurements)
** Current wind speed in m/s (hover to see current wind gust speed)